RYR7QM LQBK-LOWW

Flight info

Callsign RYR7QM
Flight time 0h 36m
Altitude 28000
Route TEBLI DCT OBUTI OBUTI2W
Aircraft A320/M-SDE3FGHIRWY/LB1

Departure

Time 2026-04-26 13:49
Airport Banja Luka International Airport (LQBK)

Arrival

Time 2026-04-26 14:26
Airport Vienna International Airport (LOWW)
Time Latitude Longitude Altitude Speed Heading
2026-04-26 13:46 44.93366 17.30249 399 ft 0 kts 261°
2026-04-26 13:47 44.93365 17.30245 399 ft 3 kts 261°
2026-04-26 13:47 44.93342 17.30220 398 ft 5 kts 176°
2026-04-26 13:47 44.93295 17.30224 398 ft 10 kts 175°
2026-04-26 13:47 44.93207 17.30215 401 ft 14 kts 211°
2026-04-26 13:48 44.93123 17.30133 400 ft 12 kts 216°
2026-04-26 13:48 44.93087 17.30069 404 ft 8 kts 243°
2026-04-26 13:48 44.93109 17.30019 404 ft 8 kts 342°
2026-04-26 13:48 44.93183 17.29998 403 ft 19 kts 349°
2026-04-26 13:49 44.93522 17.29907 393 ft 86 kts 349°
2026-04-26 13:49 44.94308 17.29707 392 ft 144 kts 349°
2026-04-26 13:49 44.95346 17.29455 851 ft 151 kts 352°
2026-04-26 13:49 44.96396 17.29213 1506 ft 156 kts 352°
2026-04-26 13:50 44.97514 17.28921 1974 ft 174 kts 351°
2026-04-26 13:50 44.98770 17.28584 2388 ft 195 kts 351°
2026-04-26 13:50 45.00200 17.28210 2764 ft 221 kts 352°
2026-04-26 13:50 45.01783 17.27694 3276 ft 246 kts 347°
2026-04-26 13:51 45.03302 17.26430 3966 ft 265 kts 313°
2026-04-26 13:51 45.04315 17.24221 4905 ft 271 kts 297°
2026-04-26 13:51 45.05048 17.21751 5923 ft 272 kts 292°
2026-04-26 13:51 45.05690 17.19260 7026 ft 269 kts 290°
2026-04-26 13:52 45.06346 17.16769 7953 ft 271 kts 292°
2026-04-26 13:52 45.07046 17.14296 8920 ft 271 kts 294°
2026-04-26 13:52 45.07787 17.11836 9847 ft 273 kts 295°
2026-04-26 13:52 45.08545 17.09340 10489 ft 284 kts 294°
2026-04-26 13:53 45.09315 17.06635 10759 ft 308 kts 293°
2026-04-26 13:53 45.10125 17.03703 10964 ft 332 kts 292°
2026-04-26 13:53 45.10992 17.00555 11126 ft 355 kts 292°
2026-04-26 13:53 45.11915 16.97212 11325 ft 373 kts 292°
2026-04-26 13:54 45.12870 16.93755 11889 ft 380 kts 292°
2026-04-26 13:54 45.13841 16.90249 12521 ft 384 kts 292°
2026-04-26 13:54 45.14825 16.86703 13171 ft 388 kts 292°
2026-04-26 13:55 45.16831 16.79513 14409 ft 396 kts 293°
2026-04-26 13:55 45.17506 16.77102 14792 ft 399 kts 293°
2026-04-26 13:55 45.21213 16.69558 15987 ft 406 kts 319°
2026-04-26 13:56 45.23523 16.67236 16512 ft 409 kts 331°
2026-04-26 13:56 45.26138 16.65631 17026 ft 412 kts 343°
2026-04-26 13:56 45.28891 16.64658 17535 ft 415 kts 346°
2026-04-26 13:56 45.31748 16.63705 18039 ft 418 kts 346°
2026-04-26 13:57 45.34546 16.62769 18527 ft 420 kts 346°
2026-04-26 13:57 45.37436 16.61799 18964 ft 422 kts 346°
2026-04-26 13:57 45.40265 16.60849 19369 ft 424 kts 346°
2026-04-26 13:57 45.43149 16.59880 19765 ft 427 kts 346°
2026-04-26 13:58 45.46046 16.58905 20139 ft 429 kts 346°
2026-04-26 13:58 45.48961 16.57920 20510 ft 431 kts 346°
2026-04-26 13:58 45.51889 16.56929 20864 ft 434 kts 346°
2026-04-26 13:58 45.54836 16.55929 21177 ft 437 kts 346°
2026-04-26 13:59 45.57801 16.54923 21499 ft 439 kts 346°
2026-04-26 13:59 45.60784 16.53910 21822 ft 442 kts 346°
2026-04-26 13:59 45.63783 16.52892 22139 ft 444 kts 346°
2026-04-26 14:00 45.72865 16.49806 23061 ft 450 kts 346°
2026-04-26 14:00 45.75923 16.48768 23340 ft 452 kts 346°
2026-04-26 14:00 45.77954 16.48078 23558 ft 453 kts 346°
2026-04-26 14:01 45.82064 16.46679 23906 ft 455 kts 346°
2026-04-26 14:01 45.85147 16.45625 24128 ft 456 kts 346°
2026-04-26 14:01 45.88238 16.44566 24344 ft 458 kts 346°
2026-04-26 14:01 45.91334 16.43504 24552 ft 459 kts 346°
2026-04-26 14:02 45.94448 16.42434 24737 ft 460 kts 346°
2026-04-26 14:02 45.97568 16.41360 24918 ft 461 kts 346°
2026-04-26 14:02 46.00689 16.40285 25123 ft 462 kts 345°
2026-04-26 14:02 46.03808 16.39210 25355 ft 461 kts 345°
2026-04-26 14:03 46.06928 16.38135 25590 ft 461 kts 345°
2026-04-26 14:03 46.10045 16.37060 25841 ft 460 kts 345°
2026-04-26 14:03 46.13157 16.35985 26064 ft 460 kts 345°
2026-04-26 14:03 46.16272 16.34909 26312 ft 460 kts 345°
2026-04-26 14:04 46.19384 16.33832 26567 ft 459 kts 345°
2026-04-26 14:04 46.22491 16.32756 26839 ft 458 kts 345°
2026-04-26 14:04 46.25584 16.31681 27121 ft 457 kts 345°
2026-04-26 14:04 46.28673 16.30605 27394 ft 457 kts 345°
2026-04-26 14:05 46.31764 16.29528 27667 ft 456 kts 345°
2026-04-26 14:05 46.34849 16.28452 27931 ft 456 kts 345°
2026-04-26 14:05 46.37936 16.27377 28046 ft 457 kts 345°
2026-04-26 14:06 46.44115 16.25278 28075 ft 455 kts 345°
2026-04-26 14:06 46.50269 16.23232 28071 ft 453 kts 345°
2026-04-26 14:07 46.56417 16.21190 28076 ft 453 kts 345°
2026-04-26 14:07 46.62559 16.19149 28075 ft 453 kts 345°
2026-04-26 14:08 46.68670 16.17130 28080 ft 453 kts 345°
2026-04-26 14:08 46.74927 16.15958 28066 ft 459 kts
2026-04-26 14:08 46.78054 16.16944 28063 ft 464 kts 16°
2026-04-26 14:09 46.81114 16.18487 28061 ft 466 kts 17°
2026-04-26 14:09 46.87151 16.21986 28040 ft 468 kts 21°
2026-04-26 14:09 46.90116 16.23925 27134 ft 466 kts 22°
2026-04-26 14:10 46.93071 16.25926 25767 ft 470 kts 22°
2026-04-26 14:10 46.96042 16.27956 24444 ft 472 kts 23°
2026-04-26 14:10 46.99030 16.29972 23010 ft 473 kts 22°
2026-04-26 14:10 47.02035 16.31956 21789 ft 471 kts 22°
2026-04-26 14:11 47.07820 16.35763 20706 ft 443 kts 21°
2026-04-26 14:11 47.10621 16.37568 19959 ft 436 kts 21°
2026-04-26 14:11 47.13387 16.39339 19215 ft 431 kts 21°
2026-04-26 14:12 47.16122 16.41094 18513 ft 426 kts 21°
2026-04-26 14:12 47.18824 16.42841 17729 ft 421 kts 21°
2026-04-26 14:12 47.21481 16.44570 16975 ft 416 kts 21°
2026-04-26 14:12 47.24113 16.46291 16252 ft 412 kts 21°
2026-04-26 14:13 47.29308 16.49701 14900 ft 404 kts 20°
2026-04-26 14:13 47.31871 16.51382 14348 ft 403 kts 20°
2026-04-26 14:13 47.34430 16.53056 13837 ft 402 kts 20°
2026-04-26 14:14 47.36972 16.54724 13283 ft 399 kts 20°
2026-04-26 14:14 47.39503 16.56393 12743 ft 397 kts 20°
2026-04-26 14:14 47.41168 16.57495 12383 ft 395 kts 20°
2026-04-26 14:14 47.43662 16.59145 11853 ft 392 kts 20°
2026-04-26 14:15 47.46975 16.61331 11170 ft 387 kts 20°
2026-04-26 14:15 47.48598 16.62401 10831 ft 385 kts 20°
2026-04-26 14:15 47.51041 16.64009 10328 ft 383 kts 20°
2026-04-26 14:15 47.54248 16.66126 9628 ft 379 kts 20°
2026-04-26 14:16 47.56646 16.67718 9076 ft 377 kts 20°
2026-04-26 14:16 47.59029 16.69303 8536 ft 375 kts 19°
2026-04-26 14:16 47.60608 16.70358 8178 ft 359 kts 19°
2026-04-26 14:16 47.62777 16.71823 7889 ft 327 kts 19°
2026-04-26 14:17 47.64758 16.73163 7646 ft 300 kts 18°
2026-04-26 14:17 47.66592 16.74386 7399 ft 277 kts 15°
2026-04-26 14:17 47.68355 16.75076 7155 ft 249 kts
2026-04-26 14:17 47.70001 16.75113 6904 ft 227 kts 347°
2026-04-26 14:18 47.71516 16.74657 6676 ft 219 kts 338°
2026-04-26 14:18 47.72983 16.74067 6419 ft 219 kts 341°
2026-04-26 14:18 47.74457 16.73535 6158 ft 217 kts 341°
2026-04-26 14:18 47.75884 16.72966 5904 ft 216 kts 341°
2026-04-26 14:19 47.77332 16.72365 5653 ft 219 kts 341°
2026-04-26 14:19 47.78872 16.71720 5416 ft 234 kts 342°
2026-04-26 14:19 47.80428 16.71073 5264 ft 228 kts 342°
2026-04-26 14:19 47.81936 16.70444 5115 ft 223 kts 343°
2026-04-26 14:20 47.83424 16.69822 4964 ft 226 kts 344°
2026-04-26 14:20 47.84964 16.69178 4809 ft 232 kts 344°
2026-04-26 14:20 47.86519 16.68528 4656 ft 232 kts 342°
2026-04-26 14:20 47.88070 16.67878 4494 ft 229 kts 343°
2026-04-26 14:21 47.89565 16.67253 4338 ft 218 kts 343°
2026-04-26 14:21 47.90982 16.66659 4216 ft 208 kts 342°
2026-04-26 14:21 47.92363 16.66080 3976 ft 205 kts 343°
2026-04-26 14:21 47.93735 16.65503 3713 ft 203 kts 343°
2026-04-26 14:22 47.95085 16.64936 3447 ft 200 kts 345°
2026-04-26 14:22 47.96426 16.64373 3178 ft 200 kts 345°
2026-04-26 14:22 47.97762 16.63812 2908 ft 199 kts 345°
2026-04-26 14:22 47.99086 16.63255 2632 ft 194 kts 345°
2026-04-26 14:23 48.00344 16.62725 2374 ft 181 kts 345°
2026-04-26 14:23 48.01513 16.62234 2170 ft 167 kts 344°
2026-04-26 14:23 48.02597 16.61776 1926 ft 156 kts 346°
2026-04-26 14:23 48.03606 16.61351 1708 ft 144 kts 346°
2026-04-26 14:24 48.04530 16.60962 1519 ft 136 kts 345°
2026-04-26 14:24 48.05441 16.60580 1358 ft 135 kts 346°
2026-04-26 14:24 48.06372 16.60188 1154 ft 144 kts 346°
2026-04-26 14:24 48.07341 16.59780 962 ft 144 kts 346°
2026-04-26 14:25 48.08290 16.59376 765 ft 138 kts 347°
2026-04-26 14:25 48.09199 16.58994 618 ft 128 kts 346°
2026-04-26 14:25 48.09902 16.58697 613 ft 80 kts 344°
2026-04-26 14:25 48.10308 16.58525 620 ft 51 kts 344°
2026-04-26 14:26 48.10627 16.58390 619 ft 44 kts 344°
2026-04-26 14:26 48.10900 16.58276 622 ft 37 kts 338°
2026-04-26 14:26 48.11062 16.58015 615 ft 34 kts 296°
2026-04-26 14:26 48.11162 16.57704 617 ft 33 kts 296°
2026-04-26 14:27 48.11261 16.57409 618 ft 31 kts 297°
2026-04-26 14:27 48.11343 16.57146 611 ft 26 kts 296°
2026-04-26 14:27 48.11409 16.56944 611 ft 19 kts 295°
2026-04-26 14:27 48.11479 16.56883 614 ft 10 kts 14°
2026-04-26 14:28 48.11541 16.56920 616 ft 9 kts 27°
2026-04-26 14:28 48.11559 16.56984 614 ft 7 kts 104°
2026-04-26 14:28 48.11538 16.57046 612 ft 6 kts 127°
2026-04-26 14:28 48.11512 16.57041 609 ft 3 kts 218°
2026-04-26 14:29 48.11495 16.57033 617 ft 4 kts 197°
2026-04-26 14:29 48.11468 16.57016 609 ft 2 kts 205°
2026-04-26 14:29 48.11464 16.57013 609 ft 0 kts 205°